Flag for United Arab Emirates Weather past 2 weeks in Abu Dhabi, Abu Dhabi, United Arab Emirates

Now
86 °F

Clear.


Feels Like: 95 °F
Forecast: 89 / 104 °F
Wind: 6 mph from Southwest

Location: Abu Dhabi Bateen Airport

Current Time: Jul 30, 2014 at 5:03:17 AM

Latest Report: Jul 30, 2014 at 4:00 AM


Visibility: 10 mi

Pressure: 29.42 "Hg

Humidity: 70%

Dew point: 75 °F

Location of Abu DhabiLocation

Historic Weather in Abu Dhabi — Graph

°F

Abu Dhabi temperature yesterday

Maximum temperature yesterday: 102 °F (at 11:00 AM)
Minimum temperature yesterday: 93 °F (at 2:00 AM)
Average temperature yesterday: 97 °F

Past Weeks' High & Low Weather Summary

 TemperatureHumidityPressure
High113 °F (Jul 26, 2:00 PM)89% (Jul 19, 3:00 AM)29.56 "Hg (Jul 19, 3:00 AM)
Low86 °F (Jul 17, 5:00 AM)13% (Jul 26, 2:00 PM)29.33 "Hg (Jul 17, 5:00 PM)
Average96 °F58%29.43 "Hg
* Reported Jul 15 4:00 AM — Jul 30 4:00 AM, Abu Dhabi, Weather by CustomWeather, © 2014

Note: Actual official high and low records may vary slightly from our data, if they occured in-between our weather recording intervals... More about our weather records

Advertising

Abu Dhabi weather history for previous 24 hours

 ConditionsComfort  
Time TempWeatherWind HumidityBarometerVisibility
4:00 AM
Jul 30
86 °FClear.6 mph70%29.42 "Hg10 mi
3:00 AM88 °FClear.5 mph66%29.42 "Hg10 mi
2:00 AM88 °FClear.6 mph70%29.42 "Hg10 mi
1:00 AM88 °FClear.6 mph70%29.42 "Hg10 mi
12:00 AM93 °FPassing clouds.3 mph56%29.45 "HgN/A
11:00 PM
Jul 29
93 °FClear.2 mph49%29.45 "Hg10 mi
10:00 PM95 °FPassing clouds.7 mph44%29.45 "HgN/A
9:00 PM95 °FClear.9 mph47%29.45 "Hg10 mi
8:00 PM95 °FClear.10 mph47%29.42 "Hg10 mi
7:00 PM97 °FSunny.15 mph44%29.42 "Hg10 mi
6:00 PM99 °FSunny.17 mph39%29.42 "Hg10 mi
5:00 PM100 °FSunny.18 mph31%29.39 "Hg10 mi
4:00 PM100 °FPassing clouds.15 mph40%29.42 "HgN/A
3:00 PM100 °FSunny.20 mph37%29.45 "Hg10 mi
2:00 PM102 °FSunny.21 mph35%29.42 "Hg10 mi
1:00 PM102 °FPassing clouds.15 mph35%29.42 "HgN/A
12:00 PM102 °FSunny.16 mph35%29.42 "Hg10 mi
11:00 AM102 °FSunny.17 mph33%29.45 "Hg10 mi
10:00 AM100 °FSunny.14 mph40%29.45 "Hg10 mi
9:00 AM99 °FSunny.16 mph44%29.42 "Hg10 mi
8:00 AM97 °FPassing clouds.12 mph47%29.42 "HgN/A
7:00 AM95 °FSunny.8 mph53%29.42 "Hg10 mi
6:00 AM93 °FSunny.7 mph56%29.42 "Hg10 mi
5:00 AM93 °FPassing clouds.6 mph59%29.42 "HgN/A
Weather by CustomWeather, © 2014

See weather overviewHow to use our weather pages